{"data":{"norad_id":53155,"intl_designator":"2022-083Z","name":"STARLINK-4088","alt_names":[],"object_type":"PAYLOAD","status":"ACTIVE","operator":null,"country":"US","launch_date":"2022-07-17","launch_site_code":"AFETR","launch_vehicle":null,"mission":null,"orbit_class":"UNKNOWN","rcs_meters":null,"size_class":null,"mass_kg":null,"dimensions":null,"purposes":["comms"],"wikipedia_slug":null,"has_3d_model":false,"image_url":null,"decayed_at":null,"tle_current":{"epoch":"2026-09-19T21:23:04.788096Z","epoch_age_seconds":124836,"freshness":"FRESH","line1":"1 53155U 22083Z   26262.89102764  .00000082  00000+0  13550-4 0  9996","line2":"2 53155  53.1624   6.2500 0001087  82.3548 277.7578 15.34395599231395","mean_motion":15.34395599,"eccentricity":0.0001087,"inclination_deg":53.1624,"raan_deg":6.25,"arg_perigee_deg":82.3548,"mean_anomaly_deg":277.7578,"bstar":1.355e-5,"rev_number":23139,"period_min":93.848027258321,"perigee_km":461.97272018185,"apogee_km":463.45992169382,"semimajor_km":6840.8533209378,"source":"CELESTRAK","updated_at":"2026-09-20T09:00:40.182594Z"}}}